New Castle, PA

4:04 AM EDT on March 30, 2017 (GMT -0400)
New Castle Municipal

Weather History for KUCP - December, 2013

Change the Weather History Date:

Tuesday, December 10, 2013

  Actual Average Record
Temperature  
Mean Temperature 23 °F -  
Max Temperature 27 °F 40 °F 70 °F (1971)
Min Temperature 19 °F 24 °F -5 °F (1958)
Degree Days  
Heating Degree Days 42    
Moisture  
Dew Point 15 °F    
Average Humidity 74    
Maximum Humidity 93    
Minimum Humidity 40    
Precipitation  
Precipitation 0.00 in - - ()
Sea Level Pressure  
Sea Level Pressure 30.12 in    
Wind  
Wind Speed 9 mph (WSW)    
Max Wind Speed 16 mph    
Max Gust Speed 26 mph    
Visibility 7 miles    
Events Fog , Snow    
Averages and records for this station are not official NWS values.
T = Trace of Precipitation, MM = Missing Value Source: NWS Daily Summary

Daily Weather History Graph

Daily Weather History Graph

Search for Another Location

Airport or City:

Trip Planner

Search our weather history database for the weather conditions in past years. The results will help you decide how hot, cold, wet, or windy it might be!

Date:

Astronomy

Dec. 10, 2013 Rise Set
Actual Time 7:35 AM EST 4:53 PM EST
Civil Twilight 7:04 AM EST 5:24 PM EST
Nautical Twilight 6:30 AM EST 5:58 PM EST
Astronomical Twilight 5:56 AM EST 6:32 PM EST
Moon 12:56 PM EST (12/10) 12:49 AM EST (12/10)
Length of Visible Light 10h 19m
Length of Day
9h 17m
First Quarter, 61% of the Moon is Illuminated
Dec 10
First Quarter
Dec 17
Full
Dec 25
Last Quarter
Jan 1
New
Jan 7
First Quarter

Hourly Weather History & Observations

Time (EST) Temp. Windchill Dew Point Humidity Pressure Visibility Wind Dir Wind Speed Gust Speed Precip Events Conditions
12:04 AM 26.6 °F 17.5 °F 19.4 °F 74% 30.10 in 10.0 mi WSW 9.2 mph - N/A   Mostly Cloudy
12:48 AM 26.6 °F 16.2 °F 19.4 °F 74% 30.09 in 10.0 mi WSW 11.5 mph 16.1 mph N/A   Scattered Clouds
12:56 AM 27.1 °F 15.9 °F 19.0 °F 72% 30.18 in 10.0 mi WSW 13.8 mph - N/A   Partly Cloudy
1:41 AM 26.6 °F 16.2 °F 17.6 °F 69% 30.09 in 10.0 mi WSW 11.5 mph - N/A   Mostly Cloudy
1:56 AM 26.1 °F 15.6 °F 18.1 °F 72% 30.18 in 10.0 mi WSW 11.5 mph - N/A   Partly Cloudy
2:56 AM 25.2 °F 16.5 °F 17.1 °F 71% 30.20 in 10.0 mi WSW 8.1 mph - N/A   Partly Cloudy
3:56 AM 25.2 °F 16.5 °F 17.1 °F 71% 30.16 in 10.0 mi WSW 8.1 mph - 0.00 in   Clear
4:33 AM 24.8 °F 16.9 °F 17.6 °F 74% 30.06 in 6.0 mi West 6.9 mph - 0.00 in Snow Light Snow
4:56 AM 24.1 °F 16.0 °F 18.1 °F 78% 30.17 in 8.0 mi WSW 6.9 mph - 0.00 in Snow Light Snow
5:08 AM 24.8 °F 19.1 °F 17.6 °F 74% 30.08 in 9.0 mi WSW 4.6 mph - 0.00 in Snow Light Snow
5:35 AM 23.0 °F 15.8 °F 19.4 °F 86% 30.07 in 5.0 mi SW 5.8 mph - 0.00 in Snow Light Snow
5:56 AM 23.0 °F 18.4 °F 20.1 °F 89% 30.16 in 2.5 mi WSW 3.5 mph - 0.00 in Snow Light Snow
6:03 AM 23.0 °F 15.8 °F 19.4 °F 86% 30.07 in 1.2 mi West 5.8 mph - 0.00 in Snow Light Snow
6:09 AM 21.2 °F 14.9 °F 19.4 °F 93% 30.07 in 0.8 mi West 4.6 mph - 0.00 in Snow Light Snow
6:29 AM 19.4 °F - 17.6 °F 93% 30.06 in 1.0 mi Calm Calm - 0.00 in Snow Light Snow
6:44 AM 19.4 °F 14.3 °F 17.6 °F 93% 30.07 in 1.2 mi West 3.5 mph - 0.00 in Snow Light Snow
6:56 AM 19.4 °F 11.5 °F 17.6 °F 93% 30.07 in 2.5 mi West 5.8 mph - N/A Snow Light Snow
7:03 AM 21.2 °F 12.6 °F 17.6 °F 86% 30.07 in 3.0 mi West 6.9 mph - 0.00 in Snow Light Snow
7:10 AM 19.4 °F 9.5 °F 17.6 °F 93% 30.07 in 2.5 mi West 8.1 mph - 0.00 in Snow Light Snow
7:28 AM 19.4 °F 10.4 °F 17.6 °F 93% 30.07 in 1.2 mi West 6.9 mph - 0.00 in Snow Light Snow
7:35 AM 19.4 °F 11.5 °F 17.6 °F 93% 30.06 in 0.8 mi West 5.8 mph - 0.00 in Snow Light Snow
7:56 AM 20.1 °F - 18.1 °F 92% 30.14 in 0.5 mi Calm Calm - 0.00 in Fog , Snow Light Snow
8:04 AM 19.4 °F 10.4 °F 17.6 °F 93% 30.05 in 0.8 mi WSW 6.9 mph - 0.00 in Snow Light Snow
8:13 AM 19.4 °F 10.4 °F 17.6 °F 93% 30.05 in 1.2 mi West 6.9 mph - 0.00 in Snow Light Snow
8:20 AM 19.4 °F 10.4 °F 17.6 °F 93% 30.05 in 2.0 mi West 6.9 mph - 0.00 in Snow Light Snow
8:25 AM 19.4 °F 10.4 °F 15.8 °F 86% 30.05 in 3.0 mi West 6.9 mph - 0.00 in Snow Light Snow
8:36 AM 19.4 °F 11.5 °F 15.8 °F 86% 30.05 in 10.0 mi West 5.8 mph - 0.00 in Snow Light Snow
8:56 AM 19.0 °F 12.3 °F 16.2 °F 89% 30.15 in 10.0 mi West 4.6 mph - 0.00 in   Partly Cloudy
9:56 AM 21.2 °F 11.7 °F 12.2 °F 68% 30.07 in 10.0 mi West 8.1 mph - N/A   Scattered Clouds
10:56 AM 21.0 °F 11.4 °F 13.1 °F 71% 30.17 in 10.0 mi WSW 8.1 mph - N/A   Scattered Clouds
11:15 AM 21.2 °F 10.1 °F 12.2 °F 68% 30.07 in 10.0 mi SW 10.4 mph - N/A   Mostly Cloudy
11:27 AM 21.2 °F 10.1 °F 12.2 °F 68% 30.06 in 10.0 mi WSW 10.4 mph - N/A   Scattered Clouds
11:56 AM 22.1 °F 8.9 °F 11.1 °F 63% 30.14 in 10.0 mi WSW 15.0 mph - N/A   Partly Cloudy
12:56 PM 23.0 °F 10.1 °F 11.1 °F 60% 30.13 in 10.0 mi WSW 15.0 mph 19.6 mph N/A   Clear
1:56 PM 25.2 °F 14.4 °F 9.1 °F 51% 30.12 in 10.0 mi SW 11.5 mph - N/A   Partly Cloudy
2:56 PM 25.2 °F 13.3 °F 7.2 °F 46% 30.11 in 10.0 mi SSW 13.8 mph 19.6 mph N/A   Clear
3:56 PM 24.8 °F 15.3 °F 3.2 °F 40% 30.01 in 10.0 mi SW 9.2 mph 20.7 mph N/A   Mostly Cloudy
4:56 PM 24.1 °F 13.1 °F 3.0 °F 40% 30.12 in 10.0 mi SW 11.5 mph 21.9 mph N/A   Clear
5:56 PM 23.0 °F 9.6 °F 6.1 °F 48% 30.15 in 10.0 mi WSW 16.1 mph 19.6 mph N/A   Clear
6:56 PM 21.2 °F 8.9 °F 8.6 °F 58% 30.11 in 10.0 mi WSW 12.7 mph 26.5 mph N/A   Mostly Cloudy
7:56 PM 22.1 °F 8.9 °F 9.1 °F 58% 30.24 in 10.0 mi WSW 15.0 mph 26.5 mph N/A   Overcast
8:56 PM 21.0 °F 8.6 °F 10.0 °F 63% 30.27 in 10.0 mi WSW 12.7 mph - N/A   Overcast
9:56 PM 21.2 °F 8.3 °F 10.4 °F 63% 30.18 in 10.0 mi WSW 13.8 mph 21.9 mph N/A Snow Light Snow
10:56 PM 21.0 °F 9.9 °F 10.0 °F 63% 30.29 in 10.0 mi SW 10.4 mph - 0.00 in   Overcast
11:56 PM 20.1 °F 8.8 °F 10.0 °F 65% 30.33 in 10.0 mi SW 10.4 mph - N/A   Overcast